GFSNIL_850_spd_000.txt.gz
Wind_Speed
4 1 2 5 8 11 15 18 21 21 20 19 19 20 22 24 25 26 27 29 30 29
3 3 4 7 10 13 16 19 20 19 18 19 21 23 25 27 30 30 30 31 30 32
4 4 6 8 11 14 17 18 18 18 19 21 24 26 28 31 32 32 31 30 33 35
5 6 7 10 13 16 18 18 18 19 21 24 26 29 32 33 33 32 31 32 36 34
7 7 9 12 14 17 18 17 18 21 23 26 29 32 33 34 34 31 32 37 37 35
8 8 10 13 16 17 17 18 20 23 26 29 32 33 33 35 30 31 36 39 38 36
7 9 12 15 17 18 19 20 22 25 28 31 33 33 35 29 33 39 40 40 36 33
8 10 14 16 18 18 19 21 24 28 31 32 32 34 28 31 33 36 41 40 30 26
8 11 15 18 18 18 20 24 28 31 32 33 32 32 28 27 31 35 38 33 31 31
9 12 16 17 17 19 23 27 30 31 32 32 33 33 27 28 30 33 35 31 31 33
11 14 14 15 18 21 26 29 31 32 33 34 35 32 28 28 29 33 32 32 30 32
11 12 14 16 20 24 28 30 31 32 34 35 35 32 28 26 29 33 36 34 31 32
11 12 14 18 23 27 29 31 32 34 35 34 35 32 26 25 30 34 35 34 31 37
11 13 17 21 24 28 30 32 34 36 36 35 29 29 26 27 29 31 34 35 41 39

GFSNIL_850_spd_003.txt.gz
Wind_Speed
10 8 5 3 2 5 9 13 16 19 20 18 18 20 22 24 25 27 29 30 29 29
9 7 4 3 5 7 11 14 17 19 19 18 20 22 24 26 29 30 31 31 30 28
8 6 5 5 6 9 13 16 18 19 19 19 21 24 26 29 30 31 32 31 30 31
8 7 6 6 8 12 15 17 19 19 19 21 23 26 29 30 31 33 32 31 32 36
9 7 7 8 10 13 16 18 18 18 20 22 25 28 30 31 32 31 32 34 39 39
9 8 7 9 12 15 17 17 17 19 22 25 28 30 30 31 30 31 34 37 39 40
8 7 7 10 13 16 17 17 18 20 24 27 29 30 32 31 31 32 34 37 38 36
7 6 8 11 14 16 15 16 20 24 26 27 29 30 31 31 30 31 34 37 36 32
6 6 8 12 15 13 15 18 22 25 27 28 29 30 31 27 29 32 34 36 35 30
5 7 10 13 12 13 17 21 25 27 27 29 31 31 29 27 29 32 33 33 35 33
6 8 11 11 12 15 20 24 27 28 28 30 32 32 28 28 29 31 31 34 32 33
7 9 9 10 13 18 24 26 28 29 31 33 33 31 29 27 29 31 33 30 27 26
8 8 8 11 16 21 25 27 29 31 32 32 32 33 28 25 28 30 31 30 34 36
6 7 10 14 19 25 27 30 31 32 33 33 33 36 29 26 26 26 30 33 37 40

GFSNIL_850_spd_006.txt.gz
Wind_Speed
16 13 12 9 7 5 6 9 12 15 16 16 16 17 19 21 23 25 26 27 28 28
16 14 12 10 7 5 7 10 13 15 16 17 18 19 21 24 26 27 27 28 28 28
16 14 11 8 6 5 8 11 14 16 17 17 18 20 23 25 26 27 28 28 29 30
15 13 10 7 6 7 10 13 15 17 17 18 20 22 24 25 27 28 29 29 32 34
14 11 8 6 6 9 12 14 15 16 17 19 21 23 25 27 27 29 31 31 32 34
12 9 7 6 8 10 12 14 14 15 18 21 23 25 26 28 29 30 29 30 32 35
10 8 7 7 8 10 12 13 14 16 20 22 24 26 28 30 31 30 29 31 33 34
10 8 7 7 8 11 11 12 15 19 21 23 25 28 30 30 29 29 31 32 33 32
9 7 7 8 9 10 11 13 17 21 23 25 26 28 29 28 29 31 31 31 29 30
8 7 7 9 10 10 12 16 19 22 24 26 28 29 29 27 28 29 30 30 32 30
6 6 7 9 9 10 14 19 21 23 26 28 29 29 29 29 28 29 29 26 26 29
5 6 8 8 9 13 17 20 23 25 28 29 29 28 28 25 28 29 27 26 26 28
5 7 7 8 11 16 20 22 25 27 27 27 28 28 26 23 25 29 30 32 33 33
6 6 7 9 14 19 22 24 27 28 27 27 28 28 24 21 24 29 32 34 34 40

GFSNIL_850_spd_009.txt.gz
Wind_Speed
23 20 16 13 10 9 8 7 9 12 14 15 16 17 18 19 21 22 23 24 24 24
23 19 16 13 11 9 8 9 10 12 15 16 17 18 19 21 22 23 24 24 25 26
21 19 16 13 10 9 8 9 11 14 16 16 17 19 21 22 23 24 24 26 28 28
21 18 15 12 10 9 9 10 13 15 17 17 19 21 22 23 24 26 27 27 28 29
18 16 13 10 9 9 9 12 14 16 17 18 20 22 23 25 26 28 29 29 29 30
17 14 11 10 9 9 10 12 14 15 17 19 22 23 24 26 28 28 29 30 31 31
14 12 11 10 9 9 11 13 15 16 18 21 23 24 27 28 29 29 29 30 29 29
13 12 11 9 9 10 12 14 15 16 19 22 25 27 28 29 29 30 31 30 30 29
13 12 10 9 9 11 13 13 15 18 21 24 27 28 29 28 30 30 30 31 30 27
13 11 9 8 10 12 11 13 17 20 24 26 28 29 28 27 27 29 28 28 26 25
11 9 8 10 10 10 12 16 19 22 26 28 28 28 28 25 27 27 26 26 24 26
8 8 9 9 10 11 14 18 21 24 26 27 27 27 27 24 26 27 29 28 28 30
8 7 8 9 10 13 17 20 23 24 25 26 26 26 24 21 24 29 32 33 33 33
7 7 8 9 12 16 19 22 23 25 24 24 25 25 23 20 24 28 32 34 35 36

GFSNIL_850_spd_012.txt.gz
Wind_Speed
23 24 21 18 15 12 9 7 7 9 12 14 16 17 17 18 19 20 21 22 22 23
26 24 21 18 15 11 9 8 9 11 13 15 17 18 18 19 20 21 22 23 24 26
26 22 19 16 13 11 10 9 10 12 15 16 18 18 19 20 21 23 24 26 27 28
24 21 18 15 13 12 11 10 11 14 16 17 18 19 20 22 23 25 27 27 29 30
22 19 16 14 13 11 10 11 13 15 17 18 18 20 22 24 26 28 29 30 30 31
20 17 16 14 12 11 11 12 14 16 17 18 20 21 23 26 28 28 29 30 31 32
18 16 14 13 12 11 11 13 14 16 17 19 21 23 26 27 28 29 30 30 30 30
17 15 14 12 11 11 12 13 15 16 18 20 23 26 28 27 28 29 30 30 27 25
16 15 13 11 10 11 12 13 15 16 19 22 25 27 28 28 26 28 30 28 26 24
15 13 11 10 10 11 12 13 15 18 21 24 27 28 28 28 25 27 26 26 27 26
13 12 10 10 9 10 12 14 17 20 24 26 27 28 28 26 25 25 25 26 27 30
12 10 9 9 9 10 12 15 18 22 25 27 27 27 27 25 24 25 27 28 31 32
11 9 7 7 9 11 14 17 21 23 24 25 27 27 25 21 23 27 29 30 34 32
8 6 6 8 9 12 16 20 22 22 23 25 26 26 24 21 23 26 29 33 35 37

GFSNIL_850_spd_015.txt.gz
Wind_Speed
25 26 28 28 25 20 15 11 9 8 8 11 13 15 16 17 17 17 18 18 20 21
27 27 29 28 23 18 14 11 9 8 10 12 14 16 17 17 17 18 19 20 21 23
29 29 29 25 21 16 13 11 9 9 11 13 15 16 17 17 18 18 20 22 23 25
32 30 26 22 18 15 12 10 9 10 12 13 15 17 17 17 18 20 22 23 25 26
31 29 25 21 17 14 12 10 9 11 12 14 16 17 17 18 21 23 24 25 27 28
29 26 22 19 16 13 11 9 10 11 12 14 16 17 19 21 23 24 25 27 28 28
26 22 19 17 15 12 10 9 10 11 14 15 17 18 21 23 24 25 26 27 27 25
23 20 18 15 13 10 8 9 10 12 15 16 18 20 23 24 25 26 27 26 25 23
21 18 16 14 10 8 8 9 11 13 15 17 19 22 23 25 25 25 26 26 25 25
19 17 14 10 8 7 7 9 12 13 16 19 21 23 24 25 24 24 24 24 25 26
17 14 11 8 6 6 8 10 12 15 17 20 22 23 24 24 24 24 23 24 24 27
13 11 8 6 4 6 8 10 13 16 19 21 22 23 24 23 23 23 25 24 25 26
11 8 5 4 5 7 9 11 14 17 19 21 22 23 23 21 19 24 24 22 24 26
8 5 3 4 5 8 10 13 15 17 19 20 22 23 22 21 19 22 24 25 25 29

GFSNIL_850_spd_018.txt.gz
Wind_Speed
32 30 34 31 32 30 27 22 17 12 9 7 7 9 11 13 14 15 15 16 17 18
34 32 30 31 32 29 25 20 15 12 9 8 8 10 12 13 14 15 16 17 18 19
32 29 30 31 31 27 22 18 14 12 9 8 9 11 13 14 14 15 17 19 20 20
33 30 32 31 29 25 20 17 14 11 9 8 10 12 13 14 15 17 19 20 20 22
32 32 32 30 26 21 18 16 12 10 8 9 11 12 13 14 16 19 20 21 22 23
33 33 31 27 23 20 17 14 11 8 8 10 11 13 14 16 18 20 21 21 22 23
32 31 28 25 21 18 15 12 9 8 9 10 12 14 16 18 19 20 21 22 22 22
32 29 25 23 19 16 12 9 8 8 9 11 13 15 16 18 19 20 20 20 20 19
28 25 23 20 16 12 9 8 8 8 10 12 14 16 18 20 20 20 20 19 20 20
27 24 20 16 12 10 7 7 8 10 11 13 15 18 19 21 21 19 19 19 20 20
23 20 16 13 10 7 7 7 9 10 12 14 17 19 20 22 19 18 18 18 20 20
19 16 13 10 6 6 8 8 9 11 13 16 18 19 20 21 19 16 17 19 19 20
16 13 9 6 8 6 6 7 10 13 15 16 17 19 21 22 17 16 18 19 20 21
14 11 10 7 5 4 5 8 11 13 15 16 18 19 22 22 18 16 19 21 21 21

GFSNIL_850_spd_021.txt.gz
Wind_Speed
34 34 32 30 32 33 31 28 24 20 16 11 8 7 8 10 12 13 14 14 14 15
34 35 31 32 34 32 28 26 23 19 14 11 8 8 9 11 13 14 15 15 15 17
36 33 33 33 33 31 26 24 22 17 13 10 8 9 10 12 13 14 14 16 17 18
35 33 33 34 31 29 25 23 19 16 12 9 8 9 11 13 14 15 15 17 18 20
36 35 33 32 29 27 25 21 18 13 10 8 9 10 12 13 15 16 17 18 20 21
37 35 33 30 27 25 23 19 15 12 9 8 9 12 13 15 16 17 19 19 20 21
36 34 31 28 26 23 19 15 12 9 8 8 10 13 14 16 17 18 19 20 20 21
34 31 28 26 23 19 15 12 9 8 7 8 12 14 14 17 18 19 19 20 20 19
32 29 26 22 18 15 11 10 9 7 7 12 13 14 16 18 20 19 19 21 21 20
31 29 25 20 15 12 12 8 6 7 11 11 13 15 17 19 20 20 19 20 20 19
28 23 19 16 15 11 9 6 7 9 9 11 14 16 17 19 20 19 18 18 19 20
19 19 18 15 12 10 6 7 7 8 10 12 13 18 18 20 21 19 17 17 19 19
20 17 15 12 9 6 5 5 6 9 11 13 14 16 19 21 21 17 17 18 18 19
17 14 10 5 5 5 4 5 7 9 11 13 15 16 19 20 18 16 18 19 22 21

GFSNIL_850_spd_024.txt.gz
Wind_Speed
35 34 31 38 42 39 38 36 31 27 24 19 15 11 8 7 8 10 11 12 12 12
35 32 34 40 42 41 37 34 29 27 24 19 15 11 8 8 9 10 13 13 14 15
38 34 33 36 39 39 36 31 28 27 23 18 13 9 8 9 10 11 13 15 16 17
35 33 33 37 36 36 34 28 27 25 20 15 11 9 9 10 12 13 14 15 17 19
36 32 35 38 37 34 28 27 26 23 17 13 10 8 9 11 13 14 15 16 18 20
35 36 37 36 35 30 28 27 24 19 15 11 8 8 9 12 13 14 15 17 19 21
37 37 37 36 33 29 27 24 20 16 12 8 6 8 12 13 14 15 17 18 20 22
37 36 35 35 31 28 25 22 17 12 8 5 8 11 12 14 15 17 18 19 20 21
39 39 36 30 29 27 23 17 11 8 7 6 10 11 14 15 16 18 19 20 20 21
37 34 31 29 25 21 20 14 8 5 5 9 11 12 14 16 17 18 18 19 19 21
31 27 26 23 22 16 10 8 6 4 8 9 12 13 14 16 17 18 18 16 17 20
27 26 23 21 16 11 8 4 5 5 7 9 12 14 15 16 18 19 17 16 18 19
22 19 19 15 11 7 4 3 4 6 7 9 10 14 17 18 20 21 19 19 19 18
20 19 13 10 4 3 3 4 3 5 7 10 12 13 17 21 22 19 19 23 22 21

GFSNIL_850_spd_027.txt.gz
Wind_Speed
45 41 41 43 44 41 43 40 39 34 30 29 25 21 17 13 10 8 8 8 9 10
43 40 40 38 36 40 42 39 38 36 33 29 25 20 16 12 9 8 9 10 11 12
39 36 36 34 35 42 40 42 40 36 33 27 23 19 15 12 9 9 10 12 13 13
35 35 33 29 35 41 43 42 40 35 29 26 21 18 14 10 8 9 11 12 14 15
32 35 30 33 37 41 43 39 35 26 26 25 21 16 11 9 9 10 12 13 14 16
33 32 33 36 37 39 39 33 31 28 26 22 17 13 9 8 10 11 13 14 15 17
31 32 36 36 37 37 35 34 30 29 25 19 13 10 8 9 11 12 13 15 17 18
31 35 36 38 36 33 30 30 30 26 21 16 11 7 9 8 10 13 14 15 16 18
33 35 36 34 32 28 28 26 22 18 15 12 7 7 7 11 12 14 15 15 16 18
34 35 35 33 28 27 22 20 16 14 9 6 6 7 8 11 12 13 14 16 18 19
34 31 27 25 24 22 19 17 14 10 7 4 5 7 10 10 12 13 15 18 19 21
22 22 23 23 21 19 17 15 9 7 6 5 6 9 10 11 13 15 17 19 18 18
23 20 20 19 19 17 15 11 8 5 3 5 6 9 12 14 16 18 17 15 17 18
21 19 19 21 19 15 10 6 5 2 3 5 8 9 13 17 19 18 18 20 22 21

GFSNIL_850_spd_030.txt.gz
Wind_Speed
39 41 43 47 42 42 42 43 44 42 39 36 33 31 28 24 20 16 13 11 10 10
36 42 45 46 42 41 40 42 43 41 38 37 34 31 28 25 19 16 13 11 10 11
32 39 46 46 40 39 38 39 41 39 40 39 34 31 28 23 20 16 13 11 10 11
29 38 44 38 38 35 33 38 39 42 41 37 33 32 27 23 19 16 12 11 11 12
30 29 35 33 32 27 34 38 41 43 42 37 37 28 24 20 17 12 12 11 11 13
29 30 32 30 25 29 34 37 39 39 37 34 31 25 20 17 14 13 11 12 14 16
29 30 30 28 28 31 32 34 34 33 31 24 22 19 14 15 14 12 11 12 14 17
27 29 30 30 29 30 31 32 33 29 26 26 19 15 15 13 14 10 12 14 17 18
30 30 29 28 29 29 26 28 27 24 22 17 16 13 12 12 13 13 13 14 15 16
25 25 25 25 24 25 26 26 25 19 17 15 14 13 14 9 12 12 13 13 15 17
25 25 24 25 22 20 20 21 21 20 18 13 13 8 10 9 11 12 13 15 17 18
18 21 21 20 20 22 21 18 15 13 11 7 9 9 9 10 11 12 13 15 15 17
19 21 24 25 23 21 16 13 10 9 7 7 7 8 9 11 12 14 15 15 16 19
21 22 21 20 18 16 14 11 8 6 6 6 6 6 9 12 15 17 20 21 22 21

GFSNIL_850_spd_033.txt.gz
Wind_Speed
28 31 31 37 38 43 47 47 46 44 43 44 41 39 35 33 30 29 26 23 19 16
30 30 30 32 37 42 44 45 43 43 43 44 42 39 37 34 31 29 23 21 18 16
28 27 28 30 35 41 43 44 40 40 40 41 39 38 36 32 31 26 23 19 16 13
27 27 27 30 37 41 43 42 38 35 37 38 39 38 34 32 28 26 20 14 14 15
25 25 25 28 34 37 38 35 32 31 33 37 38 36 34 30 26 19 17 14 17 15
20 22 24 25 28 32 31 31 30 31 37 38 38 35 31 26 21 18 14 13 17 15
20 21 22 24 26 28 29 28 27 29 31 34 33 28 25 23 15 11 12 12 14 17
18 18 21 23 24 27 27 26 25 25 31 30 26 24 20 15 13 16 13 10 16 20
15 19 22 25 25 26 24 22 25 27 27 25 22 17 16 10 12 11 13 15 15 18
15 20 23 23 22 21 20 23 23 24 23 21 19 12 11 11 14 12 11 13 15 17
13 14 16 15 17 16 19 19 19 19 17 16 14 10 9 8 6 7 12 13 15 17
10 9 14 21 20 22 19 19 18 18 14 9 7 5 3 5 6 8 11 14 16 17
17 18 21 20 20 21 19 18 14 11 9 6 2 2 5 7 8 10 13 14 16 19
17 17 19 20 18 16 16 13 10 8 7 5 4 4 6 7 11 14 17 19 21 20

GFSNIL_850_spd_036.txt.gz
Wind_Speed
20 23 26 32 35 39 39 39 42 47 46 45 41 43 42 41 41 37 35 32 29 22
21 25 26 28 33 36 37 40 39 41 47 48 45 43 44 42 41 38 35 33 29 25
24 23 22 24 27 32 34 36 38 38 40 46 46 44 40 39 39 36 33 31 26 21
18 20 19 20 25 27 30 33 34 35 36 38 42 39 35 37 37 34 30 24 22 21
21 19 18 18 20 24 25 26 28 29 29 31 33 31 34 36 34 29 27 23 17 15
21 19 16 16 17 19 18 21 24 25 26 28 30 33 33 32 32 27 23 20 18 13
20 15 16 15 14 13 17 19 22 23 24 27 29 29 30 27 23 23 21 18 15 13
15 11 13 12 13 15 17 20 21 23 23 22 24 27 26 23 22 21 16 14 13 14
9 10 9 12 13 14 16 16 16 16 19 22 24 24 23 21 18 14 11 11 11 11
6 6 6 8 10 11 12 13 15 19 21 21 19 16 15 13 11 10 8 9 8 10
0 2 6 8 8 10 11 15 17 19 18 18 17 13 11 7 6 7 6 6 9 12
8 10 11 13 14 15 18 18 18 17 16 14 13 8 7 1 3 4 6 7 10 12
9 11 13 17 18 17 17 18 18 17 14 10 6 4 3 2 2 6 8 10 12 14
12 14 16 18 18 17 16 14 13 10 9 7 6 4 1 5 6 8 11 13 16 16

GFSNIL_850_spd_039.txt.gz
Wind_Speed
18 21 25 26 28 32 35 36 36 36 37 40 44 44 42 42 44 43 44 42 38 34
16 18 20 22 24 26 29 31 33 37 38 38 42 46 43 44 44 44 43 41 39 35
14 15 18 20 23 25 28 29 30 32 35 35 38 45 45 45 43 42 41 39 36 35
14 14 14 18 22 24 25 24 27 26 28 31 33 34 40 39 38 38 38 36 34 29
11 12 16 17 18 21 22 19 20 21 21 23 27 29 32 35 34 34 34 32 31 28
24 22 17 18 18 17 17 15 14 16 18 20 24 26 28 30 31 30 31 29 25 24
21 23 19 18 16 13 13 12 15 16 18 20 22 24 26 26 28 30 26 24 21 18
14 15 16 11 12 13 11 13 14 16 17 18 19 20 23 25 26 22 19 17 17 17
10 10 9 8 10 12 11 11 11 12 14 16 18 20 18 17 17 15 16 16 15 12
7 6 5 3 3 5 6 7 8 11 15 15 18 15 14 16 16 15 13 11 9 10
4 2 2 3 6 9 11 12 15 18 19 21 18 16 14 12 9 9 8 6 3 3
7 5 4 5 8 11 14 18 19 17 15 12 13 10 9 8 7 3 1 2 2 5
12 10 10 12 15 16 16 17 17 17 14 11 10 9 6 5 5 2 1 2 5 9
15 15 15 16 15 15 16 15 13 11 9 8 9 7 6 5 3 3 5 7 9 11

GFSNIL_850_spd_042.txt.gz
Wind_Speed
16 18 23 26 25 24 24 26 31 34 35 34 37 42 46 46 45 45 47 48 50 48
17 18 19 21 22 24 24 25 26 28 32 32 34 37 42 46 47 47 45 47 50 48
16 17 17 19 21 24 25 25 28 27 28 30 31 33 36 40 45 45 43 44 45 43
10 13 15 17 19 21 25 25 26 27 26 25 26 27 29 32 36 40 40 39 39 40
13 15 17 19 18 19 18 21 25 24 23 21 21 23 24 27 30 33 34 33 33 34
14 17 20 21 19 17 18 15 20 21 21 18 18 20 22 23 24 27 27 28 29 29
16 17 15 18 20 17 16 17 17 17 18 18 18 19 21 21 21 22 23 23 21 18
11 13 11 11 10 11 12 14 15 15 15 15 15 16 17 17 16 17 17 15 14 14
10 9 8 8 7 7 7 8 10 10 9 8 8 6 8 10 12 13 12 14 13 14
8 8 8 7 6 3 1 0 3 4 4 8 11 13 13 12 12 11 12 11 10 12
9 9 9 8 7 6 5 6 8 11 11 12 14 11 10 10 11 12 9 9 8 5
10 10 11 11 11 11 11 12 11 11 12 12 14 10 9 7 7 6 4 2 2 2
14 15 15 15 15 14 14 14 13 11 10 8 9 8 6 4 4 4 2 1 3 6
18 18 18 16 14 13 13 12 10 9 9 9 9 10 7 6 3 1 3 5 7 8

GFSNIL_850_spd_045.txt.gz
Wind_Speed
13 14 15 16 20 23 23 23 24 28 31 32 32 35 37 40 40 45 46 44 46 50
11 12 14 15 15 17 17 21 23 22 28 27 27 30 32 37 41 41 44 44 43 46
8 10 12 14 16 16 16 16 17 18 22 22 25 25 28 32 37 39 39 38 37 41
9 9 9 11 13 16 19 21 23 23 25 24 23 23 24 29 32 34 37 36 37 36
9 10 10 11 14 15 18 19 21 22 19 18 20 20 19 25 29 29 32 32 31 30
11 11 11 12 14 17 18 18 18 17 18 16 18 26 21 26 25 26 26 26 25 24
9 10 12 15 15 18 19 17 16 13 13 16 16 17 29 27 23 23 22 20 17 15
8 10 11 14 13 13 12 12 12 12 10 10 14 17 20 22 18 15 13 11 10 10
10 10 9 10 10 9 8 6 7 7 6 5 8 10 6 7 10 10 10 11 11 10
8 8 9 8 6 7 7 6 4 4 5 6 6 4 5 6 8 8 9 8 7 7
5 6 7 7 9 9 9 10 10 11 11 10 10 6 5 4 5 7 7 6 4 4
9 10 11 13 14 14 12 13 13 12 11 9 9 6 6 3 2 1 1 1 2 1
14 15 15 16 15 14 13 13 11 11 10 9 7 6 3 4 6 4 2 2 2 4
17 17 16 16 15 13 12 10 9 8 8 8 8 8 6 4 3 3 4 6 8 10

GFSNIL_850_spd_048.txt.gz
Wind_Speed
14 13 13 14 14 18 25 22 19 20 25 27 26 29 31 34 39 42 42 45 49 49
10 12 14 17 16 17 17 21 23 25 22 22 19 22 24 27 31 35 36 43 41 46
6 8 9 9 11 14 16 17 19 21 24 22 22 22 21 21 24 26 30 34 38 39
7 7 6 7 12 14 14 15 17 18 20 24 26 24 21 20 21 21 24 26 30 33
7 7 8 11 14 15 16 17 19 19 19 18 18 18 19 20 18 16 17 20 21 27
9 10 10 11 13 15 16 17 17 17 18 16 14 15 16 13 13 15 16 16 18 20
9 8 8 8 10 10 11 13 13 13 10 10 10 8 11 14 16 15 17 19 21 20
8 8 8 7 6 8 8 9 12 13 13 10 12 12 12 12 12 14 14 13 12 8
8 6 6 6 5 5 6 7 7 6 6 6 7 8 7 6 6 4 2 0 2 5
6 6 4 5 4 5 7 9 9 9 8 7 10 11 11 10 9 8 6 4 2 2
2 3 5 5 7 10 12 13 13 12 11 11 12 10 10 10 9 6 4 2 0 2
6 7 8 10 13 14 13 14 14 15 12 11 12 11 10 8 5 4 3 2 4 4
12 12 13 14 14 13 12 13 13 11 10 10 8 7 7 6 4 4 2 2 3 4
14 14 14 13 12 11 10 10 10 9 9 7 8 7 7 7 7 6 7 8 10 11

GFSNIL_850_spd_051.txt.gz
Wind_Speed
15 15 16 17 17 17 17 21 27 24 24 23 21 22 25 27 26 29 35 38 40 41
12 14 15 17 19 19 19 19 20 24 27 28 27 25 20 21 23 23 27 31 32 34
10 12 13 13 14 14 15 17 19 21 22 23 22 23 23 21 21 20 23 24 27 29
10 10 11 12 12 13 14 15 15 16 17 19 20 22 25 25 22 20 19 18 20 22
9 9 9 10 11 12 13 14 15 16 18 19 20 19 18 16 16 18 17 16 18 20
10 10 10 9 10 11 12 13 14 16 17 17 15 14 14 14 14 15 16 16 16 17
8 8 8 8 8 8 8 8 8 9 9 9 8 9 9 11 12 14 16 16 16 15
5 6 7 6 7 7 6 5 4 3 5 7 8 7 8 11 11 11 12 12 10 8
7 6 5 5 5 4 3 3 4 4 5 6 8 9 7 6 7 5 4 3 3 2
3 3 3 3 3 4 6 8 7 8 8 9 11 11 11 12 9 8 6 5 4 3
3 3 4 5 7 10 11 10 10 11 10 10 12 10 10 11 9 6 5 4 4 4
6 7 8 10 13 13 11 12 12 12 11 12 12 11 10 8 7 6 5 4 4 4
10 10 11 13 14 13 10 10 10 9 10 11 9 8 7 7 7 6 6 7 7 8
13 13 12 11 10 10 9 8 8 8 7 6 7 7 7 7 8 9 9 10 11 10

GFSNIL_850_spd_054.txt.gz
Wind_Speed
18 18 19 19 20 20 19 19 19 20 25 24 25 25 22 20 19 22 24 25 28 28
15 16 16 17 19 20 21 21 21 21 21 22 25 26 27 26 22 26 21 21 23 26
13 13 14 15 16 16 15 15 16 17 18 19 20 22 22 24 24 28 27 19 20 21
13 13 13 13 14 14 14 15 15 16 16 17 17 18 20 23 26 26 23 19 18 16
12 12 11 11 12 12 13 14 15 16 17 17 18 19 20 20 20 19 15 16 15 14
13 12 12 12 12 12 12 12 11 12 13 13 13 14 15 13 13 13 14 14 15 17
11 11 11 11 10 10 9 9 9 8 9 8 8 8 9 8 9 10 11 12 15 15
7 7 8 8 8 8 8 7 6 5 2 5 5 6 5 4 4 5 6 6 7 8
8 8 7 6 6 5 4 3 1 1 0 3 5 7 7 7 6 5 5 4 5 5
8 7 6 2 2 2 3 4 5 6 6 7 8 8 9 9 8 7 7 6 5 5
8 6 4 4 6 8 8 9 9 9 8 8 9 9 8 8 7 7 6 6 6 5
7 7 7 9 11 12 12 11 10 10 8 9 9 9 9 9 8 7 6 5 5 5
9 9 12 13 12 11 10 8 8 8 8 8 7 7 7 8 9 9 9 9 9 10
11 12 12 11 10 9 8 7 6 5 5 5 6 7 8 9 10 10 10 10 10 10

GFSNIL_850_spd_057.txt.gz
Wind_Speed
17 18 18 18 18 19 19 20 20 20 19 19 19 20 18 19 20 20 17 20 21 23
16 16 16 16 17 17 18 19 19 20 20 21 20 20 19 19 19 18 19 20 22 21
15 14 14 14 15 16 16 15 15 15 14 15 16 18 19 19 18 19 20 20 22 21
15 14 14 14 14 15 15 15 14 14 14 15 16 16 16 17 19 20 21 22 22 21
15 14 14 13 13 13 14 14 14 15 15 16 16 17 17 17 18 18 18 19 20 16
13 13 13 13 13 13 13 13 13 13 12 12 13 13 12 12 13 13 12 11 12 13
11 11 11 11 11 11 11 11 11 10 9 9 10 7 6 4 4 5 7 8 8 11
7 8 8 9 9 10 9 9 8 7 6 5 5 4 3 3 1 2 2 3 4 4
8 9 10 9 7 7 7 6 4 3 1 1 4 7 8 8 7 7 6 5 4 4
9 9 10 8 6 5 3 2 3 3 4 4 6 7 8 10 8 8 7 7 6 6
9 9 8 6 5 7 7 6 6 7 8 8 9 9 8 7 7 7 7 7 7 7
9 8 7 6 8 9 10 9 8 8 8 8 7 7 6 6 7 6 6 7 8 9
9 8 8 10 11 10 9 7 7 6 4 4 4 5 6 7 7 7 8 8 9 10
10 11 12 11 10 9 8 6 5 3 1 3 5 6 6 6 8 9 9 9 9 9

GFSNIL_850_spd_060.txt.gz
Wind_Speed
14 15 16 16 16 16 17 18 19 20 20 20 20 19 19 20 19 21 22 20 17 18
15 15 15 15 15 16 16 16 17 17 17 18 18 17 17 16 17 18 18 21 21 20
14 14 14 14 15 15 15 15 14 14 14 15 15 15 14 14 15 14 15 17 16 17
14 14 14 14 14 14 14 13 13 12 13 14 15 15 16 15 14 14 15 16 16 16
14 14 14 14 14 13 13 13 12 13 13 14 15 15 15 15 15 14 13 13 14 15
14 14 14 13 13 13 13 12 12 12 11 11 11 12 12 11 12 12 11 11 10 9
12 12 12 12 12 12 11 10 10 9 9 8 8 8 8 4 3 4 4 5 4 4
9 8 8 9 10 10 9 9 8 7 6 5 5 3 1 1 2 2 2 2 1 2
9 8 8 9 9 7 7 6 5 4 2 1 2 6 7 8 7 6 5 5 5 5
11 9 9 10 9 8 6 4 3 3 4 5 6 7 8 8 7 6 6 6 6 4
11 10 10 8 7 8 7 7 6 7 8 8 9 8 6 6 6 6 6 6 5 6
12 11 8 7 8 9 9 9 9 9 8 7 6 6 6 6 5 6 6 6 7 7
10 9 8 8 9 11 11 9 9 8 6 4 3 3 3 4 5 7 7 8 9 10
10 10 10 12 11 10 9 9 7 5 3 1 1 2 3 5 7 8 8 9 9 10

GFSNIL_850_spd_063.txt.gz
Wind_Speed
13 14 15 16 17 18 18 19 19 19 20 21 21 22 22 21 20 19 20 22 21 18
14 14 14 15 16 16 16 16 17 17 16 16 16 15 16 17 17 17 16 17 18 20
14 15 15 15 15 16 16 15 15 14 14 14 13 13 13 13 14 15 16 18 20 21
16 16 16 16 16 16 16 15 14 13 12 13 13 14 14 14 14 14 14 16 18 18
15 15 15 16 16 16 15 14 13 13 13 13 13 13 13 13 14 14 14 15 16 16
15 16 15 16 15 15 14 14 13 13 12 12 11 11 11 12 12 12 12 12 12 12
16 16 15 14 14 13 13 11 12 11 11 10 9 9 8 8 5 6 7 8 8 9
13 12 11 11 11 12 12 11 11 10 9 7 6 5 4 3 5 5 4 4 4 4
10 10 10 10 9 10 9 9 9 8 6 5 4 6 7 7 7 7 6 5 5 3
11 11 11 10 10 10 9 8 7 7 7 7 7 8 8 9 8 6 5 4 3 1
11 12 12 11 10 10 9 9 7 8 9 8 9 8 7 6 5 4 3 2 0 1
12 13 13 11 10 10 11 11 10 12 11 10 8 7 5 5 4 2 1 1 2 4
13 13 12 10 11 12 13 13 13 12 10 8 6 5 4 3 2 2 2 3 4 6
12 12 11 11 13 14 15 14 13 11 8 6 4 2 2 1 2 3 4 5 6 7

GFSNIL_850_spd_066.txt.gz
Wind_Speed
18 18 18 18 18 20 20 21 21 22 22 22 23 23 23 24 23 23 22 20 21 24
16 17 17 18 19 20 20 21 21 21 21 20 20 19 19 19 19 20 18 17 17 18
16 17 18 19 19 20 20 20 20 19 19 18 18 18 17 17 17 17 16 14 16 18
16 17 17 18 18 19 19 19 19 19 17 16 16 15 16 16 16 17 16 17 17 18
18 18 19 19 19 18 18 18 17 17 17 16 16 15 15 15 15 16 17 18 17 17
17 18 18 19 19 19 17 17 17 17 17 16 16 15 14 14 14 14 15 15 15 14
16 17 19 19 18 18 16 16 17 16 16 15 14 14 12 13 13 10 11 13 14 15
16 16 16 14 15 14 15 15 16 15 14 13 12 12 10 10 6 6 7 7 7 8
17 15 13 11 12 12 12 13 13 13 11 9 8 7 6 6 6 7 6 6 7 5
16 15 13 12 12 11 12 12 10 10 8 8 7 6 6 6 6 6 5 5 4 2
16 15 14 13 13 12 12 11 11 9 10 9 9 9 7 6 6 4 4 3 3 3
16 15 14 14 13 13 13 12 12 11 11 11 10 9 6 5 4 4 4 4 4 4
16 15 15 14 13 12 13 13 13 13 13 11 9 7 6 5 5 4 4 4 5 5
16 15 15 14 14 14 15 15 15 14 13 11 10 8 7 6 5 3 5 6 6 7

GFSNIL_850_spd_069.txt.gz
Wind_Speed
18 18 18 20 20 20 20 22 23 23 23 24 24 24 25 25 25 26 25 23 21 22
17 17 17 18 18 20 21 23 23 23 23 24 24 24 23 22 21 22 21 21 19 19
17 17 17 18 19 20 21 22 22 22 22 22 22 21 21 20 19 18 18 18 15 15
16 16 18 20 21 22 22 23 22 22 21 21 20 19 18 18 18 17 18 17 16 16
16 18 19 20 22 22 22 22 22 22 21 20 19 18 18 18 17 17 17 17 17 16
17 18 18 19 21 21 21 21 20 19 20 20 19 18 17 17 16 15 15 15 14 14
17 17 18 19 20 21 20 19 19 18 19 18 17 16 16 15 15 14 15 13 12 13
17 18 19 19 18 18 18 19 18 18 18 17 17 16 15 13 12 11 8 8 9 11
18 18 19 18 17 15 15 14 15 16 17 16 15 14 12 12 9 7 7 6 7 6
17 17 18 17 16 14 13 14 14 13 12 12 11 10 8 6 7 7 6 6 6 3
18 18 19 17 16 15 14 15 14 12 11 10 9 8 7 6 6 5 4 5 4 3
20 20 20 18 16 16 15 14 13 12 11 10 9 9 8 7 6 5 5 6 5 5
21 20 19 17 16 15 15 14 13 12 12 12 11 10 8 7 7 6 5 5 6 6
20 19 18 17 16 15 14 13 13 13 13 12 11 11 9 7 7 6 6 7 7 8

GFSNIL_850_spd_072.txt.gz
Wind_Speed
21 19 16 17 17 19 20 21 23 21 20 20 21 21 22 22 22 22 23 23 19 18
19 17 18 18 17 18 20 22 22 22 22 22 22 22 22 21 21 21 22 22 20 19
19 16 15 15 16 18 21 22 22 23 23 23 23 23 22 22 20 20 19 20 17 17
15 12 13 15 18 19 21 22 22 23 23 22 22 21 20 20 19 18 18 19 17 16
14 13 15 16 18 19 20 21 21 22 21 21 21 20 19 18 17 17 18 18 18 16
12 12 14 16 17 18 19 20 22 21 21 21 20 19 18 18 17 17 17 16 16 15
13 13 15 16 18 18 20 20 21 21 20 19 19 17 17 17 17 17 16 15 14 14
13 15 16 17 18 17 17 17 18 19 19 19 18 17 17 16 16 15 13 11 11 12
15 15 17 17 17 17 16 15 16 16 15 16 18 16 15 15 13 11 9 9 9 9
15 15 17 18 18 17 15 14 13 15 14 14 15 12 11 9 8 7 7 8 8 7
16 16 18 20 18 17 15 14 14 15 15 13 14 9 7 8 7 7 7 7 7 6
17 17 19 20 18 17 15 14 14 14 13 13 11 8 8 7 7 6 6 6 6 6
17 18 20 20 18 15 14 14 15 14 13 13 12 10 9 8 7 7 7 7 6 7
18 19 20 19 18 15 15 15 15 14 13 12 11 11 10 8 8 8 8 7 7 6

GFSNIL_850_spd_075.txt.gz
Wind_Speed
23 23 23 23 22 21 21 20 18 19 20 20 20 21 22 23 23 23 23 22 22 22
21 21 21 21 21 20 18 17 17 20 21 21 21 22 23 23 22 23 23 22 23 24
23 25 20 21 19 18 18 18 19 20 21 21 21 22 23 22 22 22 21 21 23 19
19 18 19 18 17 18 18 17 18 20 21 22 22 22 22 22 20 20 20 20 20 18
22 20 18 16 14 15 17 17 19 20 20 22 22 21 22 21 21 20 20 20 19 19
19 17 17 15 14 14 16 17 19 20 21 21 21 19 20 20 20 19 18 18 18 17
17 15 14 13 13 15 16 17 19 19 20 20 19 18 19 19 18 18 18 17 16 15
16 15 14 14 15 16 16 17 18 18 19 20 20 19 19 18 19 18 16 15 15 14
19 16 14 15 15 16 17 17 17 16 16 16 16 17 18 17 16 14 12 11 10 10
18 17 15 15 16 16 16 16 15 14 15 14 15 15 13 12 10 9 9 9 10 10
20 18 16 16 15 17 17 15 14 13 13 14 14 13 12 8 9 10 10 11 11 8
21 18 17 17 17 18 17 14 13 13 12 13 12 12 10 8 9 10 9 9 8 6
20 19 19 18 19 19 17 14 14 13 13 13 12 11 10 9 9 9 9 8 9 7
20 19 19 19 21 19 16 15 13 13 14 14 12 11 11 10 9 9 9 9 9 8

GFSNIL_850_spd_078.txt.gz
Wind_Speed
28 28 27 29 26 27 24 24 23 21 21 21 21 22 23 23 23 24 25 25 24 25
25 26 27 25 23 21 19 20 26 23 26 23 23 23 23 23 24 25 25 24 24 25
23 23 24 24 25 26 20 21 23 23 22 21 22 23 23 24 24 24 24 24 23 25
23 22 22 22 22 20 26 24 21 21 21 22 23 23 23 23 23 24 23 22 22 22
21 20 20 20 19 16 18 19 20 20 20 21 21 22 23 24 24 23 22 22 21 21
21 21 21 19 18 16 16 17 18 18 19 20 21 22 22 23 22 21 21 20 20 20
19 19 18 16 15 15 16 16 17 18 19 20 20 21 21 22 21 20 20 20 19 19
17 18 17 16 15 15 15 16 18 18 19 19 20 21 22 22 22 20 20 19 17 16
18 18 17 16 16 15 16 17 18 18 19 19 20 20 18 19 18 18 17 14 13 13
20 20 19 18 17 16 16 17 18 19 19 18 17 17 17 18 14 13 11 11 12 12
22 22 21 20 18 17 17 18 18 18 18 18 16 15 15 15 12 10 11 11 12 12
21 21 21 20 18 18 19 20 19 18 17 16 14 13 14 14 12 12 13 13 13 11
19 20 22 20 20 20 21 22 20 18 16 16 13 13 14 13 13 13 13 11 10 10
19 20 20 20 20 20 22 23 20 18 16 15 15 14 14 14 12 11 12 12 10 10

GFSNIL_850_spd_081.txt.gz
Wind_Speed
24 25 26 25 23 23 26 22 19 24 25 25 23 27 24 24 23 23 23 24 24 24
24 26 26 25 26 27 26 26 25 24 23 23 26 23 23 24 24 25 25 25 25 25
19 21 23 26 26 24 22 21 20 22 23 25 24 23 27 25 25 26 25 25 25 24
18 19 20 20 20 21 20 20 18 21 25 25 24 24 24 25 26 27 26 25 24 23
17 17 18 18 19 19 20 21 20 17 19 20 21 22 23 25 26 26 25 24 24 22
15 16 16 17 17 18 18 17 16 16 17 19 20 21 23 24 24 24 24 24 23 21
14 15 17 17 17 16 16 15 15 16 17 18 19 20 21 23 24 24 24 23 21 20
14 15 16 16 16 16 15 15 15 16 16 17 18 19 20 22 23 22 23 21 20 18
16 15 16 16 16 16 15 15 15 15 17 17 18 19 19 20 22 23 18 16 15 12
17 17 17 17 18 17 16 16 15 16 17 18 18 19 19 18 18 19 14 12 12 12
18 19 19 19 19 18 18 17 17 17 18 19 18 19 17 15 16 16 11 11 12 12
18 19 20 20 20 19 20 19 19 20 20 19 17 16 15 14 15 15 13 13 12 13
19 17 19 19 19 20 20 20 21 21 21 19 18 15 13 16 15 15 14 14 14 12
19 18 18 18 19 19 20 21 23 22 20 19 18 16 15 17 16 15 13 12 12 11

GFSNIL_850_spd_084.txt.gz
Wind_Speed
21 23 24 25 24 22 21 17 16 16 18 20 21 21 23 22 20 22 22 21 21 21
19 20 23 23 23 22 23 22 22 21 21 24 23 22 22 22 22 21 20 22 22 22
18 18 19 20 21 22 23 22 23 23 24 23 20 20 19 20 21 21 22 23 23 22
17 16 16 16 16 16 17 18 18 18 17 18 20 21 19 20 21 21 22 22 23 22
18 17 17 16 15 14 15 16 16 17 18 18 16 18 18 19 20 21 21 21 22 21
14 14 14 14 15 15 15 15 16 16 15 15 16 17 18 18 20 21 22 23 22 21
12 12 13 14 15 15 16 16 16 16 15 15 16 16 17 18 19 20 21 23 22 20
12 13 14 15 16 16 16 16 15 14 14 14 15 16 17 18 19 20 22 21 19 19
15 15 14 15 15 15 15 15 14 13 13 13 14 15 17 18 18 20 22 23 14 12
16 16 16 15 15 15 15 15 15 14 14 13 14 16 18 18 19 18 20 18 11 10
17 17 17 16 16 16 16 16 16 16 15 15 15 18 19 19 17 16 15 14 10 11
18 17 17 17 17 17 18 18 17 18 18 17 17 17 18 18 17 14 13 13 12 12
21 19 17 16 16 17 19 18 19 19 20 19 18 17 15 15 17 14 13 14 13 14
18 20 18 17 17 17 18 20 20 20 21 20 18 15 14 13 17 14 15 16 14 14

GFSNIL_850_spd_087.txt.gz
Wind_Speed
17 18 19 19 18 18 18 18 16 16 16 17 15 14 15 19 18 16 17 18 19 19
16 16 16 16 16 17 17 18 18 17 19 19 20 21 18 18 15 15 17 18 20 19
14 15 16 16 15 15 16 16 18 20 22 22 21 19 17 15 16 18 17 19 20 20
16 16 15 15 14 13 13 14 16 18 20 20 19 18 17 17 17 16 17 18 19 19
14 16 16 15 15 14 14 14 15 17 17 18 17 17 17 16 15 16 16 18 19 19
15 14 13 13 14 14 14 14 15 16 16 16 16 15 16 15 15 16 16 17 18 19
14 15 16 16 14 14 14 16 16 17 17 17 16 16 14 13 14 14 15 16 17 19
14 15 16 16 17 17 17 17 17 16 16 16 14 13 13 13 14 14 15 16 17 19
15 16 17 17 17 18 19 19 18 16 16 15 14 15 13 13 13 14 15 17 18 16
18 18 18 18 17 18 17 17 16 16 16 15 14 13 13 14 14 15 16 17 17 14
20 19 18 19 18 18 19 17 17 17 16 15 14 13 14 15 16 15 15 15 16 14
17 21 21 20 20 19 18 18 18 17 17 16 16 16 16 17 17 15 14 14 15 13
16 20 23 21 19 19 19 19 19 19 19 18 18 18 17 18 17 16 13 13 13 13
14 17 22 22 21 20 19 20 20 20 20 20 19 17 17 16 16 16 14 13 12 13

GFSNIL_850_spd_090.txt.gz
Wind_Speed
18 20 20 19 18 19 19 20 19 21 21 20 17 16 17 17 20 19 16 17 18 19
15 17 18 17 18 19 19 19 19 19 19 21 20 22 22 22 21 18 17 18 18 19
11 13 13 14 16 17 18 19 20 21 21 22 23 24 24 24 23 20 20 19 19 20
12 14 14 14 14 14 15 17 19 21 23 25 26 26 25 24 22 21 19 18 18 18
11 13 15 15 15 16 15 16 18 20 23 24 25 24 23 21 20 19 18 18 17 17
11 12 13 14 15 16 16 17 17 19 20 22 22 21 21 20 18 17 17 15 15 17
13 13 14 15 15 15 15 16 17 17 19 20 19 20 19 17 16 16 16 15 15 16
15 16 15 15 15 14 15 16 18 19 20 20 20 20 19 18 18 17 16 15 14 15
16 18 17 17 17 17 18 18 19 20 20 20 20 19 18 17 16 15 14 14 14 15
16 17 19 20 20 19 20 20 21 20 20 20 20 18 17 17 15 15 16 16 15 15
17 17 20 22 22 22 22 22 21 21 21 20 19 19 18 17 17 17 18 16 15 14
16 16 18 23 24 24 23 21 21 22 21 21 21 20 20 19 19 19 17 17 15 14
18 18 18 21 25 23 22 23 23 22 23 23 22 22 21 20 21 20 19 17 16 15
19 18 18 19 24 25 24 24 25 25 25 24 24 24 23 22 21 21 19 17 15 15

GFSNIL_850_spd_093.txt.gz
Wind_Speed
26 24 23 22 21 19 21 21 21 22 25 25 25 22 21 23 23 24 26 21 19 20
17 19 19 19 18 20 20 21 21 20 21 25 25 23 22 21 21 22 24 22 22 21
12 13 15 16 17 18 20 21 21 23 23 23 24 24 24 25 25 26 26 24 22 21
10 11 13 14 16 17 19 20 21 22 23 24 24 26 28 30 28 29 27 25 23 22
5 8 10 13 16 16 17 19 20 20 21 23 25 28 29 28 27 27 26 25 23 23
9 10 11 13 14 15 16 17 18 19 21 22 24 25 26 26 26 26 26 25 24 23
11 12 13 14 15 15 16 17 18 19 20 22 23 24 25 25 25 25 24 23 22 22
14 13 13 15 16 16 16 17 17 18 20 21 22 23 23 24 24 23 23 22 21 20
16 16 17 16 16 16 17 18 18 19 20 21 22 23 22 22 23 22 22 21 20 19
16 17 18 18 19 19 19 20 20 21 22 22 22 21 21 21 22 22 21 21 19 18
20 19 18 19 20 21 22 22 22 22 22 23 24 21 22 22 22 22 21 21 20 19
23 23 22 21 20 21 24 25 24 23 23 23 23 22 22 22 23 22 21 21 21 20
20 22 24 22 22 23 25 27 26 26 25 24 25 24 23 23 24 23 23 22 22 21
17 19 20 22 22 21 24 26 28 28 27 28 28 28 27 27 27 26 25 23 22 20

GFSNIL_850_spd_096.txt.gz
Wind_Speed
12 17 20 24 21 25 27 27 26 28 26 29 33 32 29 28 25 27 25 24 23 22
29 24 20 18 25 23 21 19 22 24 24 26 29 29 29 28 27 28 25 25 25 24
12 13 16 18 18 20 20 22 23 22 25 24 24 25 26 27 27 23 24 24 25 25
7 8 10 12 14 17 18 20 20 21 23 23 24 26 27 26 26 26 25 24 26 26
4 7 10 13 16 17 18 18 19 20 21 23 24 26 28 28 29 30 29 30 29 27
6 7 9 11 12 14 16 17 18 19 20 22 23 23 25 26 28 30 31 28 26 26
7 9 10 13 14 14 14 16 17 18 19 20 21 20 21 24 25 26 26 27 27 26
8 9 9 10 13 15 16 15 16 17 18 19 21 21 23 25 25 26 26 26 25 25
12 13 15 13 13 14 15 17 18 18 19 19 20 20 22 23 24 24 25 25 24 25
14 14 16 16 15 15 15 17 19 20 20 20 21 21 22 24 25 26 26 26 25 25
21 19 18 18 18 19 19 17 20 22 22 22 22 22 23 24 27 27 27 26 26 24
21 22 22 20 19 20 21 21 23 22 22 23 23 23 23 24 26 27 26 26 25 24
26 24 23 23 23 21 20 21 21 24 24 24 24 25 24 24 26 26 27 27 27 27
25 25 24 26 23 23 23 21 20 22 23 26 26 26 26 27 28 29 30 28 27 26

GFSNIL_850_spd_099.txt.gz
Wind_Speed
8 4 9 10 21 20 22 26 18 25 28 25 28 28 29 30 32 27 29 28 30 30
13 14 12 19 21 26 24 21 26 25 29 30 28 32 33 32 32 32 35 38 33 29
20 22 22 20 18 20 20 21 23 21 22 24 25 27 29 30 28 29 28 32 32 28
9 7 8 10 12 14 15 18 19 21 23 25 28 29 28 28 27 28 27 26 27 25
4 5 6 8 10 11 13 14 16 18 20 22 22 22 22 23 26 28 27 29 27 25
1 3 5 7 8 10 12 14 15 17 18 19 21 22 23 24 26 27 27 28 27 28
6 7 8 9 9 10 12 13 15 15 16 17 19 20 22 22 22 24 26 28 29 31
8 8 8 9 9 11 12 13 15 16 17 16 18 19 19 20 22 24 25 26 27 28
9 11 12 13 13 13 14 15 15 16 17 18 18 18 20 20 22 24 26 27 27 28
13 15 14 14 15 16 16 17 17 18 19 20 20 20 20 22 23 24 24 25 25 26
15 17 19 18 19 19 20 20 21 20 20 23 22 21 22 24 26 26 27 27 28 27
18 18 19 21 22 21 21 21 22 23 24 23 22 23 24 26 28 29 28 29 29 29
23 22 21 22 24 27 23 20 19 20 21 24 24 23 26 28 30 30 30 31 31 31
23 22 22 23 24 26 24 23 22 21 20 23 24 24 27 29 32 32 32 33 34 32

GFSNIL_850_spd_102.txt.gz
Wind_Speed
27 26 23 21 20 18 17 19 22 25 27 34 33 32 31 32 30 26 28 33 31 31
16 15 16 18 19 22 23 22 24 28 31 32 41 40 43 36 37 35 37 37 34 35
9 10 13 14 13 18 21 25 24 26 27 29 28 31 36 35 35 38 37 31 37 40
6 3 6 10 12 15 15 13 18 24 27 26 25 26 31 32 32 32 30 31 30 27
5 3 4 5 6 8 10 12 13 15 18 21 22 24 25 28 30 30 30 29 29 28
5 3 1 1 3 6 8 10 12 14 15 17 19 21 23 24 25 24 26 27 30 28
8 7 5 4 4 5 8 10 11 13 14 15 17 18 21 21 22 23 25 27 28 27
8 8 8 8 9 9 10 11 12 14 15 16 18 18 19 19 21 22 23 24 26 27
9 11 12 13 13 14 14 15 16 16 17 17 18 19 19 20 21 21 23 25 27 27
14 15 15 16 17 18 18 19 19 20 21 21 22 22 21 22 22 23 23 24 26 28
18 19 21 22 23 22 23 23 24 24 23 24 24 25 25 24 25 26 25 25 26 28
21 22 23 23 24 24 26 25 26 26 26 27 28 25 23 24 26 28 29 27 27 29
22 23 22 22 24 23 23 25 26 26 24 25 26 25 24 25 29 31 31 31 31 31
24 25 25 25 26 27 27 27 27 29 27 25 23 23 24 25 28 31 32 33 34 32

GFSNIL_850_spd_105.txt.gz
Wind_Speed
27 27 21 30 34 30 24 25 26 24 25 26 26 26 23 24 25 27 27 31 29 31
14 18 17 23 20 26 24 27 26 28 29 29 29 31 31 30 32 34 32 32 31 38
17 21 14 16 13 12 15 15 19 20 23 28 33 37 36 43 48 46 44 44 41 42
15 9 10 11 8 11 18 19 21 24 27 29 28 28 34 35 33 36 41 43 43 38
8 10 7 4 3 4 7 10 10 12 14 15 19 19 18 19 23 25 30 31 32 32
12 9 7 4 2 1 4 6 8 10 12 13 15 18 20 23 25 29 29 31 31 29
13 12 10 9 7 5 5 6 8 10 12 14 16 18 19 21 24 26 27 27 27 28
13 11 9 8 8 8 9 10 12 12 13 15 17 19 20 22 23 25 25 25 27 28
12 12 12 12 12 13 14 15 16 17 19 19 19 20 21 23 25 26 27 27 26 26
15 15 16 18 19 19 20 21 21 22 23 24 24 25 26 27 27 29 29 28 28 28
17 19 20 21 21 21 22 23 24 24 24 25 26 28 29 30 31 30 30 30 30 30
19 20 21 21 22 24 26 27 28 27 27 27 26 25 27 28 30 30 30 33 33 33
20 20 21 23 23 25 26 27 29 29 28 27 29 28 28 27 28 29 30 32 34 36
23 24 26 28 29 30 30 30 31 31 31 31 29 27 27 29 26 27 30 27 29 30

GFSNIL_850_spd_108.txt.gz
Wind_Speed
25 24 27 32 30 24 20 20 19 16 20 29 31 31 32 32 33 33 33 30 37 30
17 21 30 29 27 23 23 21 17 19 15 20 24 25 26 32 27 26 26 28 29 29
17 18 23 21 19 12 14 13 18 20 23 24 19 23 25 27 28 30 33 37 38 38
18 16 14 11 10 6 5 4 11 20 22 28 33 32 39 37 43 43 41 39 36 40
19 14 10 7 7 6 7 6 5 8 12 9 14 22 26 21 22 27 28 29 25 26
19 16 15 12 9 6 4 3 3 5 6 6 9 12 15 18 20 23 26 27 27 28
20 18 15 13 10 9 8 6 5 6 7 9 11 13 15 17 19 21 23 24 25 27
17 15 13 12 11 10 10 10 10 11 12 13 15 17 18 20 22 24 26 26 26 26
14 13 14 13 13 13 13 14 15 16 17 18 19 20 21 23 24 25 27 28 27 27
15 15 16 15 15 16 17 18 19 19 20 21 21 23 24 26 27 29 30 31 31 31
19 19 19 20 20 21 22 23 24 24 25 25 24 25 26 28 29 30 31 31 32 33
17 17 18 19 20 21 22 24 25 26 27 28 29 29 29 30 32 34 34 33 31 29
18 20 21 22 23 23 24 25 26 28 28 28 29 27 27 28 30 33 33 29 28 29
18 20 21 22 24 26 28 29 30 32 32 33 33 31 29 25 26 29 29 29 30 30

GFSNIL_850_spd_111.txt.gz
Wind_Speed
24 24 24 24 23 24 25 27 22 29 29 33 35 37 35 40 43 40 41 42 41 40
21 21 23 24 23 23 24 25 17 18 10 16 26 28 27 26 31 31 37 42 39 41
17 18 21 23 27 26 25 17 17 15 16 12 8 14 13 9 23 27 29 32 33 35
10 13 18 21 21 18 13 14 14 10 10 14 16 21 21 20 21 24 28 33 36 36
23 21 22 19 15 13 9 4 5 4 4 8 8 10 23 24 28 28 24 28 34 45
24 28 25 22 18 15 13 12 8 5 4 3 6 8 8 11 14 17 26 23 24 19
22 22 20 17 14 10 10 7 7 6 5 6 5 7 9 12 14 16 18 21 22 23
18 16 14 13 11 10 8 8 7 7 7 7 9 11 13 14 16 18 20 21 22 23
15 13 13 12 11 10 9 9 9 10 11 12 12 14 16 17 19 20 22 25 25 25
13 13 13 13 12 12 13 13 14 14 15 15 17 18 19 21 22 23 24 25 26 28
14 14 14 14 15 16 17 18 19 19 20 21 22 23 24 26 26 27 27 28 29 30
15 15 15 16 16 16 16 17 18 20 21 22 23 23 23 24 26 27 28 28 28 28
15 15 14 14 14 15 17 19 21 22 23 23 24 24 24 23 22 24 24 24 26 27
13 13 14 15 18 19 22 24 25 27 28 28 29 29 27 23 23 25 26 27 28 25

GFSNIL_850_spd_114.txt.gz
Wind_Speed
24 24 22 19 20 23 27 28 26 26 27 31 34 31 33 35 36 41 40 47 41 40
20 20 18 15 17 19 21 22 24 24 24 22 26 26 32 35 35 40 37 41 41 40
17 18 18 19 19 21 23 23 20 26 26 22 16 13 20 24 28 35 38 38 38 40
12 13 12 15 19 21 23 26 25 25 25 22 19 14 14 16 10 7 12 20 26 29
18 17 22 19 16 16 18 19 15 11 13 10 6 5 10 17 18 20 21 21 17 16
23 18 17 19 16 13 17 13 8 7 4 3 1 3 4 7 7 9 11 14 19 22
20 18 18 16 13 12 13 10 8 7 4 2 2 4 6 6 9 12 13 15 17 19
13 14 13 12 11 10 7 6 6 6 5 5 5 7 9 10 11 12 14 15 17 18
8 9 9 9 9 9 7 6 6 6 6 8 9 11 12 14 16 17 18 19 20 21
10 9 9 9 9 9 8 8 9 9 10 10 12 14 15 16 17 18 20 22 24 25
9 9 10 10 10 9 9 10 10 11 12 13 14 15 16 17 17 18 18 20 21 22
11 11 11 10 10 10 11 11 12 13 13 13 12 12 12 13 15 15 15 16 16 18
11 10 10 10 10 10 10 10 10 10 10 11 12 13 14 12 11 12 14 15 16 17
10 9 9 9 10 10 11 12 13 14 14 15 17 18 20 16 13 14 17 17 17 19

GFSNIL_850_spd_117.txt.gz
Wind_Speed
21 25 25 25 24 25 26 23 18 22 27 29 29 30 29 31 33 35 37 38 40 44
19 21 21 20 17 19 18 16 19 20 22 21 22 26 28 32 34 35 34 37 36 45
15 17 19 18 16 14 16 16 18 19 20 23 25 23 24 31 33 35 42 40 44 32
10 12 13 9 10 13 14 16 18 18 18 19 23 25 20 16 13 12 13 13 19 24
4 2 3 6 5 7 10 12 11 17 17 21 20 21 17 15 15 19 21 21 21 19
16 13 13 15 14 11 8 11 10 9 6 2 4 5 4 3 5 7 9 10 12 14
19 16 15 13 11 9 9 8 9 8 7 4 2 2 3 4 6 8 12 14 16 16
10 9 12 10 9 7 7 4 5 6 5 7 7 6 7 11 11 11 10 10 12 13
7 4 6 5 5 4 4 3 1 4 5 6 8 10 9 9 10 12 14 15 15 16
5 5 4 4 4 3 3 4 4 4 4 5 7 9 10 11 12 13 14 15 16 16
6 6 5 5 5 6 6 7 8 8 8 8 9 10 11 11 11 12 13 13 14 15
7 7 8 8 8 8 8 8 7 6 6 6 7 8 11 10 9 9 10 12 13 17
9 9 9 9 9 8 7 6 5 5 6 6 7 10 13 14 12 11 12 11 11 12
11 10 9 8 7 6 6 6 7 9 10 11 12 11 12 10 7 9 11 10 12 11